DAQI 1

导读

DAQI 1即大气一号卫星,是中国首颗专门用于大气环境综合监测的卫星,由上海航天技术研究院研制,运行于太阳同步轨道。该卫星可监测PM2.5等细颗粒物污染,二氧化氮、二氧化硫、臭氧等污染气体,以及二氧化碳浓度,搭载全球首个可同时探测大气气溶胶和二氧化碳的激光雷达,探测精度达到国际先进水平,助力提升我国大气环境监测能力。

基本信息
目录编号:
52257
目录名称:
DAQI 1
国际标识:
2022-039A
轨道中心:
EARTH
卫星名称:
DAQI 1
卫星全名:
--
卫星状态:
在轨 (已飞行1613 天)
发射日期:
2022-04-15 UTC
国别 :
中国 (CN)
星等 :
--
该卫星已列入 空间交会检测服务 Space Conjunction Data Service (SCDS) ,当前飞行风险评估等级: 无高风险
轨道信息
数据来源 国际轨道数据
星历时间: 2026-09-14T07:13:55+0800
8小时前
查看轨道信息
半长轴: 7078.683km
偏心率: 0.0003725
轨道倾角: 98.152°
近地点辐角 0.998°
升交点赤经 193.999°
平近点角 359.123°
近地点: 697.909km
远地点: 703.183km
周期: 98.784分钟
每日圈数: 14.5772
详细信息
使用方式:
暂无
2D轨道图
3D轨道图
轨道高度分析图
轨道倾角分析图
轨道综合分析图
查看轨道综合分析图
交会数据列表
事件ID 空间交会对象 最接近时刻(TCA) 交会距离 交会风险概率(CRP) 交会风险指数(CRI) 操作
CDM_260915-011604-241005-225723
DAQI 1 (52257)
2026-09-15T
01:16:36+0000
1.361 km
极远距离
8.898524E-6 低风险 0.54
CDM_260916-060503-655805-225721
DAQI 1 (52257)
2026-09-16T
06:05:31+0000
2.960 km
极远距离
1.348198E-6 低风险 0.38
与全量物体交会距离演化趋势 订阅飞行安全评估服务
与全量物体交会风险概率演化趋势 订阅飞行安全评估服务